Time,TemperatureF,DewpointF,PressureIn,WindDirection,WindDirectionDegrees,WindSpeedMPH,WindSpeedGustMPH,Humidity,HourlyPrecipIn,Conditions,Clouds,dailyrainin,SoftwareType,DateUTC
2013-02-06 00:00:00,35.2,30.5,29.96,WNW,302,0.0,0.0,83,0.00,SCT,,0.00,WeatherDisplay:10.37,2013-02-06 05:00:00,
2013-02-06 00:15:00,34.9,30.3,29.96,WNW,302,0.0,0.0,83,0.00,SCT,,0.00,WeatherDisplay:10.37,2013-02-06 05:15:00,
2013-02-06 00:30:00,34.4,30.1,29.96,WNW,302,0.0,0.0,84,0.00,SCT,,0.00,WeatherDisplay:10.37,2013-02-06 05:30:00,
2013-02-06 00:45:00,34.3,30.0,29.96,WNW,302,0.0,0.0,84,0.00,SCT,,0.00,WeatherDisplay:10.37,2013-02-06 05:45:00,
2013-02-06 01:00:00,33.8,29.8,29.96,WNW,302,0.0,0.0,85,0.00,SCT,,0.00,WeatherDisplay:10.37,2013-02-06 06:00:00,
2013-02-06 01:15:00,33.7,29.7,29.96,WNW,302,0.0,0.0,85,0.00,SCT,,0.00,WeatherDisplay:10.37,2013-02-06 06:15:00,
2013-02-06 01:30:00,33.5,29.8,29.96,WNW,302,0.0,0.0,86,0.00,SCT,,0.00,WeatherDisplay:10.37,2013-02-06 06:30:00,
2013-02-06 01:45:00,33.5,29.8,29.96,WNW,302,0.0,1.0,86,0.00,SCT,,0.00,WeatherDisplay:10.37,2013-02-06 06:45:00,
2013-02-06 02:00:00,33.0,29.5,29.96,WNW,302,0.0,0.0,87,0.00,SCT,,0.00,WeatherDisplay:10.37,2013-02-06 07:00:00,
2013-02-06 02:15:00,32.8,29.4,29.96,WNW,302,0.0,0.0,87,0.00,SCT,,0.00,WeatherDisplay:10.37,2013-02-06 07:15:00,
2013-02-06 02:30:00,32.5,29.3,29.96,WNW,302,0.0,0.0,88,0.00,SCT,,0.00,WeatherDisplay:10.37,2013-02-06 07:30:00,
2013-02-06 02:45:00,32.4,29.2,29.96,WNW,302,0.0,0.0,88,0.00,SCT,,0.00,WeatherDisplay:10.37,2013-02-06 07:45:00,
2013-02-06 03:00:00,32.1,29.2,29.96,WNW,302,0.0,0.0,89,0.00,SCT,,0.00,WeatherDisplay:10.37,2013-02-06 08:00:00,
2013-02-06 03:15:00,32.1,28.9,29.96,WNW,302,0.0,0.0,88,0.00,SCT,,0.00,WeatherDisplay:10.37,2013-02-06 08:15:00,
2013-02-06 03:30:00,31.8,28.9,29.96,WNW,302,0.0,0.0,89,0.00,SCT,,0.00,WeatherDisplay:10.37,2013-02-06 08:30:00,
2013-02-06 03:45:00,31.6,28.7,29.96,WNW,302,0.0,0.0,89,0.00,SCT,,0.00,WeatherDisplay:10.37,2013-02-06 08:45:00,
2013-02-06 04:00:00,31.6,28.7,29.97,WNW,302,0.0,0.0,89,0.00,SCT,,0.00,WeatherDisplay:10.37,2013-02-06 09:00:00,
2013-02-06 04:15:00,31.5,28.6,29.97,WNW,302,0.0,0.0,89,0.00,SCT,,0.00,WeatherDisplay:10.37,2013-02-06 09:15:00,
2013-02-06 04:30:00,31.3,28.4,29.98,WNW,302,0.0,0.0,89,0.00,SCT,,0.00,WeatherDisplay:10.37,2013-02-06 09:30:00,
2013-02-06 04:45:00,31.0,28.1,29.99,WNW,302,0.0,0.0,89,0.00,SCT,,0.00,WeatherDisplay:10.37,2013-02-06 09:45:00,
2013-02-06 05:00:00,31.0,28.1,30.00,WNW,302,0.0,0.0,89,0.00,SCT,,0.00,WeatherDisplay:10.37,2013-02-06 10:00:00,
2013-02-06 05:15:00,31.0,28.1,30.00,WNW,302,0.0,0.0,89,0.00,SCT,,0.00,WeatherDisplay:10.37,2013-02-06 10:15:00,
2013-02-06 05:30:00,30.9,28.3,30.01,WNW,302,0.0,0.0,90,0.00,SCT,,0.00,WeatherDisplay:10.37,2013-02-06 10:30:00,
2013-02-06 05:45:00,31.2,28.6,30.01,WNW,302,0.0,0.0,90,0.00,SCT,,0.00,WeatherDisplay:10.37,2013-02-06 10:45:00,
2013-02-06 06:00:00,30.9,28.3,30.03,WNW,302,0.0,0.0,90,0.00,SCT,,0.00,WeatherDisplay:10.37,2013-02-06 11:00:00,
2013-02-06 06:15:00,30.7,28.1,30.04,WNW,302,0.0,0.0,90,0.00,SCT,,0.00,WeatherDisplay:10.37,2013-02-06 11:15:00,
2013-02-06 06:30:00,30.6,28.0,30.05,WNW,302,0.0,0.0,90,0.00,SCT,,0.00,WeatherDisplay:10.37,2013-02-06 11:30:00,
2013-02-06 06:45:00,30.7,28.1,30.06,WNW,302,0.0,0.0,90,0.00,SCT,,0.00,WeatherDisplay:10.37,2013-02-06 11:45:00,
2013-02-06 07:00:00,30.6,28.0,30.07,WNW,302,0.0,0.0,90,0.00,SCT,,0.00,WeatherDisplay:10.37,2013-02-06 12:00:00,
2013-02-06 07:15:00,30.3,27.7,30.08,WNW,302,0.0,0.0,90,0.00,SCT,,0.00,WeatherDisplay:10.37,2013-02-06 12:15:00,
2013-02-06 07:30:00,30.4,27.8,30.09,WNW,302,0.0,0.0,90,0.00,SCT,,0.00,WeatherDisplay:10.37,2013-02-06 12:30:00,
2013-02-06 07:45:00,30.4,27.8,30.10,WNW,302,0.0,0.0,90,0.00,SCT,,0.00,WeatherDisplay:10.37,2013-02-06 12:45:00,
2013-02-06 08:00:00,30.6,28.3,30.11,WNW,302,0.0,0.0,91,0.00,SCT,,0.00,WeatherDisplay:10.37,2013-02-06 13:00:00,
2013-02-06 08:15:00,31.9,29.5,30.12,WNW,302,0.0,0.0,91,0.00,SCT,,0.00,WeatherDisplay:10.37,2013-02-06 13:15:00,
2013-02-06 08:30:00,34.0,31.7,30.12,WNW,302,0.0,0.0,91,0.00,SCT,,0.00,WeatherDisplay:10.37,2013-02-06 13:30:00,
2013-02-06 08:45:00,38.7,34.6,30.13,WNW,302,0.0,2.0,85,0.00,SCT,,0.00,WeatherDisplay:10.37,2013-02-06 13:45:00,
2013-02-06 09:00:00,43.5,32.5,30.13,WNW,300,0.0,4.0,65,0.00,SCT,,0.00,WeatherDisplay:10.37,2013-02-06 14:00:00,
2013-02-06 09:15:00,46.1,31.7,30.14,NW,319,1.0,12.0,57,0.00,SCT,,0.00,WeatherDisplay:10.37,2013-02-06 14:15:00,
2013-02-06 09:45:00,49.2,29.3,30.14,NW,315,3.0,10.0,46,0.00,SCT,,0.00,WeatherDisplay:10.37,2013-02-06 14:45:00,
2013-02-06 10:00:00,50.5,29.4,30.15,NW,318,1.0,12.0,44,0.00,SCT,,0.00,WeatherDisplay:10.37,2013-02-06 15:00:00,
2013-02-06 10:15:00,51.4,29.1,30.15,NNW,328,0.0,10.0,42,0.00,SCT,,0.00,WeatherDisplay:10.37,2013-02-06 15:15:00,
2013-02-06 10:30:00,52.1,28.5,30.15,NW,314,1.0,8.0,40,0.00,SCT,,0.00,WeatherDisplay:10.37,2013-02-06 15:30:00,
2013-02-06 10:45:00,53.1,27.5,30.15,WNW,292,3.0,7.0,37,0.00,SCT,,0.00,WeatherDisplay:10.37,2013-02-06 15:45:00,
2013-02-06 11:00:00,53.9,26.1,30.15,NW,311,2.0,9.0,34,0.00,SCT,,0.00,WeatherDisplay:10.37,2013-02-06 16:00:00,
2013-02-06 11:15:00,54.8,24.7,30.16,NW,318,1.0,12.0,31,0.00,SCT,,0.00,WeatherDisplay:10.37,2013-02-06 16:15:00,
2013-02-06 11:30:00,54.9,23.2,30.15,NNW,327,2.0,12.0,29,0.00,SCT,,0.00,WeatherDisplay:10.37,2013-02-06 16:30:00,
2013-02-06 11:45:00,55.6,23.8,30.16,NNW,332,3.0,9.0,29,0.00,SCT,,0.00,WeatherDisplay:10.37,2013-02-06 16:45:00,
2013-02-06 12:00:00,55.7,23.1,30.15,NNW,339,2.0,12.0,28,0.00,SCT,,0.00,WeatherDisplay:10.37,2013-02-06 17:00:00,
2013-02-06 12:15:00,56.2,22.6,30.15,NW,318,1.0,10.0,27,0.00,SCT,,0.00,WeatherDisplay:10.37,2013-02-06 17:15:00,
2013-02-06 12:30:00,56.6,23.9,30.15,NW,323,2.0,9.0,28,0.00,SCT,,0.00,WeatherDisplay:10.37,2013-02-06 17:30:00,
2013-02-06 12:45:00,57.3,21.8,30.14,NNW,332,3.0,9.0,25,0.00,SCT,,0.00,WeatherDisplay:10.37,2013-02-06 17:45:00,
2013-02-06 13:00:00,57.7,21.1,30.14,NW,310,1.0,9.0,24,0.00,SCT,,0.00,WeatherDisplay:10.37,2013-02-06 18:00:00,
2013-02-06 13:15:00,57.9,23.2,30.14,WNW,294,0.0,12.0,26,0.00,SCT,,0.00,WeatherDisplay:10.37,2013-02-06 18:15:00,
2013-02-06 13:30:00,58.2,20.5,30.13,NW,309,5.0,9.0,23,0.00,SCT,,0.00,WeatherDisplay:10.37,2013-02-06 18:30:00,
2013-02-06 13:45:00,58.1,20.4,30.13,NNW,338,1.0,12.0,23,0.00,SCT,,0.00,WeatherDisplay:10.37,2013-02-06 18:45:00,
2013-02-06 14:00:00,59.0,23.2,30.12,NW,322,0.0,8.0,25,0.00,SCT,,0.00,WeatherDisplay:10.37,2013-02-06 19:00:00,
2013-02-06 14:15:00,58.3,20.6,30.12,NW,323,0.0,10.0,23,0.00,SCT,,0.00,WeatherDisplay:10.37,2013-02-06 19:15:00,
2013-02-06 14:30:00,59.1,21.3,30.12,NW,316,2.0,7.0,23,0.00,SCT,,0.00,WeatherDisplay:10.37,2013-02-06 19:30:00,
2013-02-06 14:45:00,59.0,21.2,30.12,NW,310,2.0,12.0,23,0.00,SCT,,0.00,WeatherDisplay:10.37,2013-02-06 19:45:00,
2013-02-06 15:00:00,59.0,23.2,30.12,WNW,297,0.0,12.0,25,0.00,SCT,,0.00,WeatherDisplay:10.37,2013-02-06 20:00:00,
2013-02-06 15:15:00,58.8,21.0,30.12,NW,323,3.0,9.0,23,0.00,SCT,,0.00,WeatherDisplay:10.37,2013-02-06 20:15:00,
2013-02-06 15:30:00,58.7,18.8,30.12,NW,315,5.0,12.0,21,0.00,SCT,,0.00,WeatherDisplay:10.37,2013-02-06 20:30:00,
2013-02-06 15:45:00,58.3,20.6,30.14,NW,309,1.0,12.0,23,0.00,SCT,,0.00,WeatherDisplay:10.37,2013-02-06 20:45:00,
2013-02-06 16:00:00,58.1,19.4,30.14,NW,317,5.0,9.0,22,0.00,SCT,,0.00,WeatherDisplay:10.37,2013-02-06 21:00:00,
2013-02-06 16:15:00,58.3,19.6,30.15,NW,311,2.0,6.0,22,0.00,SCT,,0.00,WeatherDisplay:10.37,2013-02-06 21:15:00,
2013-02-06 16:30:00,57.5,19.9,30.15,NNW,343,0.0,5.0,23,0.00,SCT,,0.00,WeatherDisplay:10.37,2013-02-06 21:30:00,
2013-02-06 16:45:00,57.5,19.9,30.16,NW,318,0.0,4.0,23,0.00,SCT,,0.00,WeatherDisplay:10.37,2013-02-06 21:45:00,
2013-02-06 17:00:00,57.0,19.5,30.16,NNW,335,1.0,5.0,23,0.00,SCT,,0.00,WeatherDisplay:10.37,2013-02-06 22:00:00,
2013-02-06 17:15:00,56.7,20.3,30.17,NNW,339,1.0,4.0,24,0.00,SCT,,0.00,WeatherDisplay:10.37,2013-02-06 22:15:00,
2013-02-06 17:30:00,56.1,18.8,30.17,NW,314,0.0,3.0,23,0.00,SCT,,0.00,WeatherDisplay:10.37,2013-02-06 22:30:00,
2013-02-06 17:45:00,54.9,20.6,30.17,NW,314,0.0,1.0,26,0.00,SCT,,0.00,WeatherDisplay:10.37,2013-02-06 22:45:00,
2013-02-06 18:00:00,51.9,21.4,30.18,NW,314,0.0,0.0,30,0.00,SCT,,0.00,WeatherDisplay:10.37,2013-02-06 23:00:00,
2013-02-06 18:15:00,49.5,23.0,30.18,NW,314,0.0,0.0,35,0.00,SCT,,0.00,WeatherDisplay:10.37,2013-02-06 23:15:00,
2013-02-06 18:30:00,47.7,25.1,30.18,NW,314,0.0,0.0,41,0.00,SCT,,0.00,WeatherDisplay:10.37,2013-02-06 23:30:00,
2013-02-06 18:45:00,46.1,23.7,30.20,NW,314,0.0,0.0,41,0.00,SCT,,0.00,WeatherDisplay:10.37,2013-02-06 23:45:00,
2013-02-06 19:00:00,45.1,24.4,30.20,NW,314,0.0,0.0,44,0.00,SCT,,0.00,WeatherDisplay:10.37,2013-02-07 00:00:00,
2013-02-06 19:15:00,44.1,25.6,30.20,NW,314,0.0,0.0,48,0.00,SCT,,0.00,WeatherDisplay:10.37,2013-02-07 00:15:00,
2013-02-06 19:30:00,43.3,24.9,30.20,NW,314,0.0,0.0,48,0.00,SCT,,0.00,WeatherDisplay:10.37,2013-02-07 00:30:00,
2013-02-06 19:45:00,42.5,25.6,30.21,NW,314,0.0,0.0,51,0.00,SCT,,0.00,WeatherDisplay:10.37,2013-02-07 00:45:00,
2013-02-06 20:00:00,41.6,25.3,30.22,NW,314,0.0,0.0,52,0.00,SCT,,0.00,WeatherDisplay:10.37,2013-02-07 01:00:00,
2013-02-06 20:15:00,41.1,26.1,30.21,NW,314,0.0,0.0,55,0.00,SCT,,0.00,WeatherDisplay:10.37,2013-02-07 01:15:00,
2013-02-06 20:30:00,40.6,26.5,30.22,NW,314,0.0,0.0,57,0.00,SCT,,0.00,WeatherDisplay:10.37,2013-02-07 01:30:00,
2013-02-06 20:45:00,40.2,27.4,30.21,NW,314,0.0,0.0,60,0.00,SCT,,0.00,WeatherDisplay:10.37,2013-02-07 01:45:00,
2013-02-06 21:00:00,40.3,27.1,30.21,NW,325,0.0,1.0,59,0.00,SCT,,0.00,WeatherDisplay:10.37,2013-02-07 02:00:00,
2013-02-06 21:15:00,42.2,26.2,30.20,NNW,338,0.0,1.0,53,0.00,SCT,,0.00,WeatherDisplay:10.37,2013-02-07 02:15:00,
2013-02-06 21:30:00,44.7,25.2,30.20,North,2,1.0,3.0,46,0.00,SCT,,0.00,WeatherDisplay:10.37,2013-02-07 02:30:00,
2013-02-06 21:45:00,45.7,25.5,30.20,ENE,78,0.0,2.0,45,0.00,SCT,,0.00,WeatherDisplay:10.37,2013-02-07 02:45:00,
2013-02-06 22:00:00,45.2,25.1,30.20,ENE,78,0.0,2.0,45,0.00,SCT,,0.00,WeatherDisplay:10.37,2013-02-07 03:00:00,
2013-02-06 22:15:00,44.6,24.5,30.21,ENE,78,0.0,1.0,45,0.00,SCT,,0.00,WeatherDisplay:10.37,2013-02-07 03:15:00,
2013-02-06 22:30:00,43.8,24.8,30.21,ENE,78,0.0,2.0,47,0.00,SCT,,0.00,WeatherDisplay:10.37,2013-02-07 03:30:00,
2013-02-06 22:45:00,42.7,25.3,30.21,ENE,78,0.0,1.0,50,0.00,SCT,,0.00,WeatherDisplay:10.37,2013-02-07 03:45:00,
2013-02-06 23:00:00,41.8,25.0,30.23,ENE,78,0.0,1.0,51,0.00,SCT,,0.00,WeatherDisplay:10.37,2013-02-07 04:00:00,
2013-02-06 23:15:00,40.5,26.0,30.24,ENE,78,0.0,0.0,56,0.00,SCT,,0.00,WeatherDisplay:10.37,2013-02-07 04:15:00,
2013-02-06 23:30:00,39.2,25.6,30.24,ENE,78,0.0,0.0,58,0.00,SCT,,0.00,WeatherDisplay:10.37,2013-02-07 04:30:00,
2013-02-06 23:45:00,38.1,26.3,30.24,ENE,78,0.0,0.0,62,0.00,SCT,,0.00,WeatherDisplay:10.37,2013-02-07 04:45:00,